Weather History for KIKK - August, 2012

Change the Weather History Date:

Sunday, August 12, 2012

  Actual Average Record
Temperature  
Mean Temperature 64 °F -  
Max Temperature 78 °F 81 °F 96 °F (1988)
Min Temperature 50 °F 59 °F 44 °F (2004)
Degree Days  
Heating Degree Days 1    
Growing Degree Days 14 (Base 50)    
Moisture  
Dew Point 53 °F    
Average Humidity 66    
Maximum Humidity 95    
Minimum Humidity 34    
Precipitation  
Precipitation 0.00 in - - ()
Sea Level Pressure  
Sea Level Pressure 30.03 in    
Wind  
Wind Speed 2 mph (SSE)    
Max Wind Speed 8 mph    
Max Gust Speed -    
Visibility 9 miles    
Events Fog , Rain    
Averages and records for this station are not official NWS values.
T = Trace of Precipitation, MM = Missing Value Source: NWS Daily Summary

Daily Weather History Graph

Daily Weather History Graph

Search for Another Location

Airport or City:

Trip Planner

Search our weather history database for the weather conditions in past years. The results will help you decide how hot, cold, wet, or windy it might be!

Date:

Astronomy

Aug. 12, 2012 Rise Set
Actual Time 5:58 AM CDT 7:53 PM CDT
Civil Twilight 5:28 AM CDT 8:23 PM CDT
Nautical Twilight 4:52 AM CDT 8:59 PM CDT
Astronomical Twilight 4:13 AM CDT 9:38 PM CDT
Moon 1:10 AM CDT (8/12) 4:19 PM CDT (8/12)
Length of Visible Light 14h 54m
Length of Day
13h 54m
Waning Crescent, 24% of the Moon is Illuminated
Aug 12
Waning Crescent
Aug 17
New
Aug 24
First Quarter
Aug 31
Full
Sep 8
Last Quarter

Hourly Weather History & Observations

Time (CDT) Temp. Dew Point Humidity Pressure Visibility Wind Dir Wind Speed Gust Speed Precip Events Conditions
12:15 AM 54.7 °F 51.8 °F 90% 30.04 in 10.0 mi Calm Calm - N/A   Clear
12:35 AM 55.6 °F 52.9 °F 91% 30.03 in 10.0 mi Calm Calm - N/A   Clear
12:55 AM 54.7 °F 52.2 °F 91% 30.03 in 10.0 mi Calm Calm - N/A   Clear
1:15 AM 54.3 °F 51.4 °F 90% 30.04 in 10.0 mi Calm Calm - N/A   Clear
1:35 AM 53.6 °F 50.7 °F 90% 30.04 in 10.0 mi Calm Calm - N/A   Clear
1:55 AM 53.1 °F 50.4 °F 91% 30.03 in 10.0 mi Calm Calm - N/A   Clear
2:15 AM 52.3 °F 49.6 °F 91% 30.04 in 10.0 mi Calm Calm - N/A   Clear
2:35 AM 54.7 °F 52.9 °F 94% 30.04 in 10.0 mi Calm Calm - N/A   Clear
2:55 AM 52.0 °F 49.8 °F 92% 30.04 in 10.0 mi Calm Calm - N/A   Clear
3:15 AM 52.3 °F 50.2 °F 92% 30.04 in 0.8 mi Calm Calm - N/A   Mist
3:35 AM 52.9 °F 51.3 °F 94% 30.03 in 1.2 mi Calm Calm - N/A   Mist
4:15 AM 51.3 °F 49.6 °F 94% 30.04 in 2.5 mi Calm Calm - N/A   Mostly Cloudy
4:35 AM 51.1 °F 49.6 °F 95% 30.03 in 0.2 mi Calm Calm - N/A Fog Fog
4:55 AM 50.9 °F 49.3 °F 94% 30.03 in 1.0 mi Calm Calm - N/A   Overcast
5:15 AM 50.7 °F 49.3 °F 95% 30.03 in 4.0 mi Calm Calm - N/A   Scattered Clouds
5:35 AM 53.4 °F 51.8 °F 94% 30.04 in 10.0 mi Calm Calm - N/A   Clear
5:55 AM 52.7 °F 51.3 °F 95% 30.05 in 1.2 mi Calm Calm - N/A   Mist
6:15 AM 53.1 °F 51.4 °F 94% 30.05 in 10.0 mi Calm Calm - N/A   Clear
6:35 AM 52.9 °F 51.3 °F 94% 30.05 in 7.0 mi Calm Calm - N/A   Clear
6:55 AM 54.1 °F 52.3 °F 94% 30.05 in 10.0 mi Calm Calm - N/A   Clear
7:15 AM 57.0 °F 55.0 °F 93% 30.05 in 10.0 mi Calm Calm - N/A   Clear
7:35 AM 59.2 °F 55.9 °F 89% 30.05 in 10.0 mi Calm Calm - N/A   Clear
7:55 AM 60.4 °F 56.5 °F 87% 30.05 in 10.0 mi Calm Calm - N/A   Clear
8:15 AM 61.0 °F 56.8 °F 86% 30.06 in 10.0 mi Calm Calm - N/A   Clear
8:35 AM 63.1 °F 57.4 °F 81% 30.06 in 10.0 mi Calm Calm - N/A   Clear
8:55 AM 65.1 °F 58.5 °F 79% 30.06 in 10.0 mi Calm Calm - N/A   Clear
9:15 AM 67.3 °F 57.7 °F 71% 30.06 in 10.0 mi Calm Calm - N/A   Clear
9:35 AM 70.7 °F 57.0 °F 62% 30.06 in 10.0 mi Calm Calm - N/A   Clear
9:55 AM 72.1 °F 55.4 °F 56% 30.06 in 10.0 mi South 5.8 mph - N/A   Clear
10:15 AM 72.9 °F 54.1 °F 52% 30.07 in 10.0 mi South 6.9 mph - N/A   Clear
10:35 AM 72.3 °F 55.2 °F 55% 30.07 in 10.0 mi SSW 4.6 mph - N/A   Clear
10:55 AM 73.2 °F 53.8 °F 50% 30.06 in 10.0 mi South 5.8 mph - N/A   Clear
11:15 AM 74.3 °F 54.7 °F 50% 30.06 in 10.0 mi South 4.6 mph - N/A   Clear
11:35 AM 74.5 °F 55.2 °F 51% 30.06 in 10.0 mi South 4.6 mph - N/A   Clear
11:55 AM 74.1 °F 55.8 °F 53% 30.06 in 10.0 mi South 8.1 mph - N/A   Clear
12:15 PM 76.3 °F 55.6 °F 49% 30.06 in 10.0 mi Calm Calm - N/A   Clear
12:35 PM 75.2 °F 52.2 °F 44% 30.05 in 10.0 mi SSW 4.6 mph - N/A   Clear
12:55 PM 75.2 °F 50.0 °F 41% 30.05 in 10.0 mi SW 8.1 mph - N/A   Clear
1:15 PM 74.8 °F 50.5 °F 42% 30.05 in 10.0 mi Calm Calm - N/A   Clear
1:35 PM 75.6 °F 50.0 °F 41% 30.04 in 10.0 mi SSW 4.6 mph - N/A   Clear
1:55 PM 76.6 °F 48.2 °F 37% 30.03 in 10.0 mi SE 3.5 mph - N/A   Clear
2:15 PM 76.6 °F 50.5 °F 40% 30.03 in 10.0 mi SW 5.8 mph - N/A   Clear
2:35 PM 77.5 °F 50.4 °F 38% 30.03 in 10.0 mi SE 3.5 mph - N/A   Clear
2:55 PM 77.4 °F 50.5 °F 39% 30.02 in 10.0 mi South 5.8 mph - N/A   Clear
3:15 PM 77.2 °F 48.9 °F 37% 30.02 in 10.0 mi South 3.5 mph - N/A   Clear
3:35 PM 77.2 °F 48.6 °F 36% 30.01 in 10.0 mi Calm Calm - N/A   Clear
3:55 PM 78.1 °F 49.6 °F 37% 30.01 in 10.0 mi Calm Calm - N/A   Clear
4:15 PM 77.9 °F 47.3 °F 34% 30.01 in 10.0 mi Calm Calm - N/A   Clear
4:35 PM 77.9 °F 47.7 °F 34% 30.01 in 10.0 mi Calm Calm - N/A   Clear
4:55 PM 77.9 °F 47.7 °F 34% 30.01 in 10.0 mi South 3.5 mph - N/A   Clear
5:15 PM 77.0 °F 49.3 °F 38% 30.00 in 10.0 mi SSE 3.5 mph - N/A   Clear
5:35 PM 76.5 °F 50.7 °F 40% 30.00 in 10.0 mi SE 6.9 mph - N/A   Clear
5:55 PM 75.6 °F 51.4 °F 43% 29.99 in 10.0 mi ESE 5.8 mph - N/A   Clear
6:15 PM 75.2 °F 51.8 °F 44% 29.99 in 10.0 mi SE 3.5 mph - N/A   Clear
6:35 PM 74.8 °F 51.8 °F 44% 29.98 in 10.0 mi ESE 3.5 mph - N/A   Clear
6:55 PM 73.6 °F 52.7 °F 48% 29.98 in 10.0 mi SE 4.6 mph - N/A   Clear
7:15 PM 72.9 °F 54.5 °F 52% 29.99 in 10.0 mi SE 3.5 mph - N/A Rain Light Rain
7:35 PM 71.4 °F 55.9 °F 58% 29.98 in 10.0 mi SE 4.6 mph - N/A   Scattered Clouds
7:55 PM 71.8 °F 55.0 °F 55% 29.98 in 10.0 mi ESE 4.6 mph - N/A   Clear
8:15 PM 70.7 °F 56.3 °F 60% 29.99 in 10.0 mi ESE 4.6 mph - N/A   Clear
8:35 PM 69.6 °F 56.3 °F 63% 30.00 in 10.0 mi SE 3.5 mph - N/A   Clear
8:55 PM 68.9 °F 56.3 °F 64% 30.00 in 10.0 mi ESE 3.5 mph - N/A   Clear
9:15 PM 68.4 °F 55.8 °F 64% 30.00 in 10.0 mi ESE 3.5 mph - N/A   Clear
9:35 PM 67.6 °F 56.1 °F 67% 30.00 in 10.0 mi ESE 3.5 mph - N/A   Clear
9:55 PM 66.7 °F 56.7 °F 70% 30.00 in 10.0 mi ESE 5.8 mph - N/A   Clear
10:15 PM 66.4 °F 57.2 °F 72% 29.99 in 10.0 mi ESE 5.8 mph - N/A   Clear
10:35 PM 66.4 °F 57.2 °F 72% 29.99 in 10.0 mi ESE 6.9 mph - N/A   Clear
10:55 PM 66.2 °F 57.0 °F 72% 29.98 in 10.0 mi ESE 5.8 mph - N/A   Clear
11:15 PM 66.2 °F 57.2 °F 73% 29.98 in 10.0 mi ESE 3.5 mph - N/A   Clear
11:35 PM 65.3 °F 56.8 °F 74% 29.99 in 10.0 mi SE 3.5 mph - N/A   Scattered Clouds
11:55 PM 66.2 °F 56.5 °F 71% 29.98 in 10.0 mi SE 5.8 mph - N/A   Mostly Cloudy